Location: Ammerl�gen
(47.2167°N, 9.6000°E)
Time: 10:59:36
(UTC+00:00)

USA 215 - Pass Details

Date: 21 April 2021
Orbit: 1101 x 1107 km, 123.0° (Epoch: 05 May)

Event Time Altitude Azimuth Distance (km) Brightness Sun altitude
Exits shadow 22:06:18 38° 230° (SW) 1,625 3.9 -28.4°
Drops below altitude 10° 22:12:17 10° 296° (WNW) 2,962 6.0 -28.7°
Sets 22:15:00 0° 304° (NW) 3,924 6.9 -28.8°
